This is the latest recevied weather packets stored in our database for station/object KC8P. If no packets are shown the sender has not sent any weather packets the latest 10 day(s).
| Time | Temp. | Humidity | Pressure | Rain* | Wind** | Luminosity | Snow |
|---|---|---|---|---|---|---|---|
| 1778277662 | 18.33° C | 37% | 1006.9 hPa | 0 mm | - | 368 W/m² | - |
| 1778277582 | 18.33° C | 36% | 1006.9 hPa | 0 mm | - | 363 W/m² | - |
| 1778277517 | 18.33° C | 36% | 1006.9 hPa | 0 mm | - | 370 W/m² | - |
| 1778277451 | 18.33° C | 36% | 1007.3 hPa | 0 mm | - | 372 W/m² | - |
| 1778277385 | 18.33° C | 37% | 1006.9 hPa | 0 mm | - | 373 W/m² | - |
| 1778277320 | 17.78° C | 38% | 1006.9 hPa | 0 mm | - | 362 W/m² | - |
| 1778277254 | 17.78° C | 36% | 1006.9 hPa | 0 mm | - | 370 W/m² | - |
| 1778277189 | 17.22° C | 37% | 1006.9 hPa | 0 mm | - | 369 W/m² | - |
| 1778277123 | 17.22° C | 37% | 1006.9 hPa | 0 mm | - | 382 W/m² | - |
| 1778277058 | 17.78° C | 36% | 1007.3 hPa | 0 mm | - | 387 W/m² | - |
| 1778276992 | 17.22° C | 36% | 1007.3 hPa | 0 mm | - | 378 W/m² | - |
| 1778276927 | 17.22° C | 37% | 1006.9 hPa | 0 mm | - | 366 W/m² | - |
| 1778276861 | 17.22° C | 37% | 1007.3 hPa | 0 mm | - | 356 W/m² | - |
| 1778276794 | 17.22° C | 37% | 1006.9 hPa | 0 mm | - | 355 W/m² | - |
| 1778276730 | 17.78° C | 37% | 1007.3 hPa | 0 mm | - | 378 W/m² | - |
| 1778276664 | 17.78° C | 39% | 1007.3 hPa | 0 mm | - | 386 W/m² | - |
| 1778276598 | 17.22° C | 40% | 1007.3 hPa | 0 mm | - | 128 W/m² | - |
| 1778276532 | 17.22° C | 38% | 1007.3 hPa | 0 mm | - | 127 W/m² | - |
| 1778276467 | 17.22° C | 38% | 1007.3 hPa | 0 mm | - | 200 W/m² | - |
| 1778276402 | 17.78° C | 37% | 1007.3 hPa | 0 mm | - | 260 W/m² | - |
| 1778276336 | 17.78° C | 38% | 1007.3 hPa | 0 mm | - | 319 W/m² | - |
| 1778276270 | 17.78° C | 37% | 1007.3 hPa | 0 mm | - | 229 W/m² | - |
| 1778276218 | 17.22° C | 44% | 1007.3 hPa | 0 mm | - | 439 W/m² | - |
| 1778276139 | 17.22° C | 45% | 1007.3 hPa | 0 mm | - | 446 W/m² | - |
| 1778276072 | 17.22° C | 45% | 1007.3 hPa | 0 mm | - | 433 W/m² | - |
* Rain latest hour (hover to see other rain measurements)
** Current wind speed in m/s (hover to see current wind gust speed)